Location: Bijni
(23.7667°N, 91.1500°E)
Time: 23:13:32
(UTC+00:00)

Daily predictions for brighter satellites

Satellite Brightness Start Highest point End
(mag) Time Altitude Azimuth Time Altitude Azimuth Time Altitude Azimuth
STARLINK-1105 3.9 12:57:14 10° SW 13:00:15 51° NW 13:03:16 10° NNE
STARLINK-1199 4.0 12:56:32 10° SSW 13:00:26 42° SE 13:04:21 10° NE
STARLINK-1247 4.0 12:58:08 10° SW 13:01:08 49° NW 13:04:10 10° NNE
Meteor 1-10 Rocket 4.4 12:55:33 10° S 13:01:19 89° E 13:07:14 10° N
STARLINK-1227 4.0 12:58:35 10° SW 13:01:36 48° NW 13:04:37 10° NNE
STARLINK-1226 4.1 12:59:28 10° SW 13:02:28 47° NW 13:05:27 10° NNE
Hubble Space Telescope 1.0 12:58:37 10° W 13:02:45 74° NNW 13:06:53 10° ENE
STARLINK-1215 4.1 13:00:25 10° SW 13:03:23 45° NW 13:06:24 10° NNE
IUS-1 SRM-2 2.2 12:58:17 10° W 13:03:38 67° N 13:05:48 10° ENE
STARLINK-1217 4.3 13:02:14 10° WSW 13:05:11 43° NW 13:08:09 10° NNE
STARLINK-1210 3.8 13:01:23 10° SSW 13:05:22 48° SE 13:09:22 10° NE
STARLINK-1229 4.4 13:03:08 10° WSW 13:06:06 41° NW 13:09:03 10° NNE
Meteor 1-14 Rocket 4.4 13:00:39 10° N 13:06:11 79° W 13:11:44 10° S
STARLINK-1270 4.4 13:04:01 10° WSW 13:06:57 40° NW 13:09:54 10° NNE
STARLINK-1219 3.7 13:06:18 10° SSW 13:10:20 56° SE 13:14:23 10° NE
Cosmos 1184 Rocket 3.1 13:11:06 10° N 13:14:10 43° E 13:17:13 10° SSE
STARLINK-1211 3.6 13:11:12 10° SSW 13:15:17 65° SE 13:19:23 10° NE
Delta 198 3.4 13:11:30 10° WSW 13:15:54 59° SSE 13:19:42 10° E
Cosmos 1603 3.7 13:11:31 10° NNW 13:17:14 76° ENE 13:22:57 10° SSE
Ariane Rocket 3.5 13:13:06 10° SE 13:17:49 41° ENE 13:22:33 10° N
USA 186 2.6 13:19:13 16° ESE 13:20:01 19° ENE 13:21:48 10° NNE
STARLINK-1245 3.5 13:16:10 10° SSW 13:20:17 75° SE 13:24:24 10° NE
Cosmos 1943 3.3 13:15:37 10° N 13:21:14 64° ENE 13:26:46 10° SSE
STARLINK-1175 2.7 13:18:57 10° NW 13:21:32 61° SW 13:23:34 15° SSE
NOSS 2-3 (E) 4.1 13:18:47 10° S 13:22:30 31° ESE 13:26:16 10° NE
CZ-4 R/B 3.8 13:19:41 10° SSW 13:23:00 23° W 13:26:23 10° NW
ARGOS 3.5 13:19:29 10° SSE 13:24:34 46° ENE 13:29:40 10° N
STARLINK-1233 3.5 13:21:06 10° SW 13:25:13 85° SE 13:29:22 10° NE
STARLINK-1146 3.5 13:21:57 10° NNW 13:25:15 49° NE 13:27:28 18° ESE
STARLINK-1147 3.4 13:22:57 10° NNW 13:26:16 51° NE 13:28:27 19° ESE
STARLINK-1185 3.3 13:24:56 10° NNW 13:28:17 55° NE 13:30:24 20° ESE
STARLINK-1186 3.3 13:25:58 10° NNW 13:29:20 57° NE 13:31:24 21° ESE
STARLINK-1204 3.6 13:26:05 10° SW 13:30:12 84° NW 13:34:21 10° NE
STARLINK-1196 3.2 13:28:26 10° NNW 13:31:49 62° NE 13:33:49 22° SE
H-2A R/B 2.1 13:31:59 10° NW 13:34:00 31° NNE 13:37:50 13° E
CZ-2C R/B 2.9 13:28:41 10° NNE 13:34:05 49° E 13:39:29 10° S
STARLINK-1238 3.8 13:31:01 10° SW 13:35:08 74° NW 13:39:16 10° NE
STARLINK-1181 3.1 13:32:31 10° NW 13:35:56 72° NE 13:37:48 25° SE
BREEZE-M DEB 3.2 13:33:46 10° SSW 13:36:34 24° SE 13:36:34 24° SE
Cosmos 2278 Rocket 3.8 13:37:21 15° E 13:37:21 15° E 13:39:44 10° ENE
STARLINK-1183 3.1 13:33:38 10° NW 13:37:03 75° NE 13:38:52 25° SE
STARLINK-1201 4.1 13:36:04 10° SW 13:40:09 63° NW 13:44:15 10° NNE
Cosmos 2242 Rocket 4.0 13:38:48 15° SSE 13:42:03 40° E 13:46:09 10° NNE
NOSS 2-3 (D) 3.5 13:38:19 10° S 13:42:21 51° ESE 13:46:29 10° NE
STARLINK-1176 3.3 13:40:30 10° NW 13:44:07 73° SW 13:45:59 26° SSE
STARLINK-1194 3.0 13:41:20 10° NW 13:44:46 84° SW 13:46:18 30° SE
STARLINK-1206 4.3 13:41:05 10° SW 13:45:07 55° NW 13:49:11 10° NNE
STARLINK-1193 3.1 13:42:34 10° NW 13:46:00 81° SW 13:47:29 31° SSE
STARLINK-1184 3.1 13:43:46 10° NW 13:47:12 78° SW 13:48:39 32° SSE
Cosmos 405 Rocket 3.3 13:43:38 10° NNW 13:47:35 59° W 13:51:26 10° S
Cosmos 1844 Rocket 3.3 13:42:02 10° SSW 13:47:36 59° WNW 13:53:11 10° N
Meteor 1-5 Rocket 4.4 13:42:43 10° NNW 13:48:10 71° W 13:53:47 10° S
STARLINK-1127 3.1 13:45:01 10° NW 13:48:28 75° SW 13:49:53 33° SSE
STARLINK-1179 3.5 13:45:18 10° NW 13:48:54 63° SW 13:50:37 28° SSE
CZ-2C R/B 3.6 13:44:54 10° NNE 13:49:23 82° ESE 13:53:56 10° S
SL-08 RB Rocket 3.8 13:46:25 21° SSE 13:49:28 60° ENE 13:54:00 10° N
STARLINK-1142 3.2 13:46:18 10° NW 13:49:44 72° SW 13:51:06 33° SSE
Meteor 1-11 Rocket 3.6 13:44:11 10° N 13:49:47 79° E 13:54:32 14° S
Okean 1 4.1 13:49:58 29° ESE 13:50:28 30° E 13:54:02 10° NNE
STARLINK-1137 3.3 13:47:36 10° NW 13:51:01 69° SW 13:52:21 34° SSE
USA 229 DEB 4.2 13:45:52 10° SW 13:52:09 59° WNW 13:58:40 10° NNE
USA 229 4.2 13:45:59 10° SW 13:52:16 59° WNW 13:58:46 10° NNE
STARLINK-1195 3.3 13:48:53 10° NW 13:52:18 65° SW 13:53:35 34° SSE
STARLINK-1152 3.4 13:50:12 10° NW 13:53:37 63° SW 13:54:52 35° SSE
Genesis I 3.0 13:51:10 10° NNW 13:55:00 81° ENE 13:56:25 37° SSE
Cosmos 389 Rocket 2.7 13:55:15 42° ESE 13:55:27 42° E 13:58:43 10° NNE
ASTEX 1 3.5 13:54:09 25° SSE 13:56:46 55° E 14:01:31 10° N
NOSS 3-1 (A) 3.2 13:56:28 10° SSW 14:01:36 74° WNW 14:07:15 10° NNE
Cosmos 2034 Rocket 4.4 13:58:01 10° NNE 14:03:46 41° E 14:05:47 32° ESE
Cosmos 1816 Rocket 4.4 14:03:23 18° S 14:08:03 63° E 14:14:06 10° NNE
SPOT 3 Rocket 3.6 14:09:04 38° SE 14:10:50 58° ENE 14:15:53 10° N
Atlas Centaur 2 4.4 14:05:14 10° W 14:11:42 26° SSW 14:16:11 17° S
GPS 2-04 Rocket1 2.5 14:08:25 10° SW 14:11:29 58° SSW 14:11:29 58° SSW
ATLAS 3B CENTAUR R/B 3.6 13:57:20 10° SW 14:12:53 55° SSE 14:16:55 30° E
NOSS 2-3 (C) 4.0 14:09:01 10° SW 14:13:06 58° WNW 14:17:22 10° NNE
OAO 2 Rocket 3.9 14:08:37 10° WNW 14:13:42 47° SSW 14:15:17 36° SSE
Cosmos 1513 Rocket 4.3 14:09:13 10° N 14:15:19 83° E 14:18:49 27° S
Cosmos 1536 3.1 14:11:27 10° NNW 14:15:29 68° W 14:16:59 36° SSW
SJ-6B 3.6 14:17:55 29° SSW 14:19:28 45° W 14:23:04 10° NNW
Cosmos 1666 3.3 14:16:28 10° NNW 14:20:13 53° W 14:21:27 36° SSW
STARLINK-1180 4.3 14:17:13 10° NNW 14:21:06 39° NE 14:21:08 39° NE
H-2A R/B 3.7 14:19:04 10° SSW 14:23:16 28° W 14:27:32 10° NW
Okean 1-7 2.8 14:24:39 71° SSE 14:25:05 81° E 14:29:22 10° N
NATO 3D Rocket 3.9 14:17:30 10° W 14:25:14 69° S 14:26:50 49° SE
STARLINK-1153 4.2 14:22:06 10° NNW 14:25:54 44° NE 14:25:54 44° NE
Cosmos 1733 Rocket 4.0 14:22:42 10° NNW 14:26:50 44° W 14:28:54 25° SSW
Cosmos 1464 Rocket 4.1 14:20:30 10° N 14:26:51 80° W 14:30:31 27° S
Resurs 01 Rocket 1.9 14:29:01 52° ENE 14:29:01 52° ENE 14:33:03 10° N
Cosmos 1624 Rocket 3.9 14:26:11 26° SSW 14:29:17 89° ESE 14:34:37 10° NNE
STARLINK-1132 4.1 14:27:02 10° NNW 14:30:42 49° NNE 14:30:42 49° NNE
GOES 2 Rocket 4.3 14:26:02 10° WNW 14:33:21 59° N 14:35:45 35° ENE
GPS 2-18 Rocket1 4.3 14:31:49 10° W 14:34:24 36° WSW 14:34:24 36° WSW
STARLINK-1177 4.1 14:31:58 10° NNW 14:35:29 52° NNE 14:35:29 52° NNE
STARLINK-1167 4.2 14:36:55 10° NNW 14:40:16 53° N 14:40:16 53° N
Hubble Space Telescope 1.7 14:40:14 10° WNW 14:44:10 42° N 14:44:10 42° N
STARLINK-1168 4.3 14:41:51 10° NW 14:45:02 51° NNW 14:45:02 51° NNW
Tsikada Rocket 4.4 14:44:37 22° SSW 14:48:42 61° W 14:54:49 10° N
H-2A ROCKET BODY 4.4 14:57:39 36° E 14:57:39 36° E 15:12:11 10° ENE
Gbstr 26 Del rocket 4.0 14:50:41 10° NW 14:58:32 86° NE 14:59:24 72° SE
DNEPR-1 R/B 4.2 14:56:51 10° NNW 15:01:35 63° NW 15:01:35 63° NW
Spot 2 Rocket 4.3 15:04:34 41° NNE 15:04:34 41° NNE 15:08:02 10° N
DELTA 2 R/B (1) 4.3 15:03:44 10° WNW 15:08:09 45° WSW 15:08:09 45° WSW
Milstar 3 Cent rocket 4.2 15:04:46 10° SW 15:18:34 39° E 15:32:31 10° ENE
Cosmos 2278 Rocket 3.0 15:19:02 40° WSW 15:20:15 46° WNW 15:25:42 10° N
Terra 4.3 15:41:52 15° NNE 15:41:52 15° NNE 15:42:50 10° N
Cosmos 2082 Rocket 4.4 16:37:05 10° NNW 16:38:46 20° NNW 16:38:46 20° NNW
ATLAS 2AS CENTAUR R/B 4.2 18:13:43 35° NNW 18:13:43 35° NNW 18:18:36 10° NNE
SL-16 R/B 3.6 19:40:46 40° NNE 19:40:46 40° NNE 19:44:42 10° N
USA 234 4.4 19:37:29 10° ENE 19:41:42 33° E 19:41:42 33° E
Cosmos 2297 Rocket 4.4 19:45:50 10° NNE 19:49:50 20° ENE 19:52:38 14° E
ATLAS 3B R/B 3.2 19:45:35 10° NNW 19:51:19 57° NNE 19:51:19 57° NNE
CENTAUR R/B 4.1 19:48:50 10° NW 19:53:28 35° NW 19:53:28 35° NW
BREEZE-M DEB (TANK) 4.3 20:10:27 36° NNE 20:10:27 36° NNE 20:15:43 10° NE
Cosmos 1697 Rocket 3.5 20:17:58 47° N 20:17:58 47° N 20:21:58 10° NNE
Cosmos 2227 Rocket 3.5 20:20:20 10° N 20:25:32 36° ENE 20:29:07 18° SE
CZ-2D R/B 4.3 20:25:06 10° NNW 20:26:17 14° NW 20:26:17 14° NW
ADEOS II 3.0 20:27:51 10° N 20:31:18 39° NNW 20:31:18 39° NNW
CZ-4C R/B 3.3 20:35:12 29° NNW 20:35:12 29° NNW 20:38:24 10° N
Resurs 1-4 Rocket 4.4 20:36:15 10° NW 20:36:56 12° NW 20:36:56 12° NW
ARIANE 5 R/B 2.9 20:41:53 10° N 20:45:54 55° NNW 20:45:54 55° NNW
H-2A R/B 4.0 20:44:46 17° ESE 20:47:05 26° ENE 20:50:41 10° NNE
Spot 4 Rocket 3.9 20:47:05 10° NNE 20:52:04 85° NNE 20:52:04 85° NNE
GPS 2-04 Rocket1 4.0 20:53:43 37° E 20:53:43 37° E 20:56:29 10° ESE
Cosmos 1898 Rocket 3.6 20:50:06 10° N 20:55:25 75° ENE 20:56:37 53° SE
IDEFIX/ARIANE 42P 2.7 20:53:47 10° NNE 20:59:01 69° E 21:00:02 55° SSE
CZ-2C R/B 3.6 20:57:37 10° NNE 21:00:30 48° NE 21:00:30 48° NE
ASTRO E2 3.3 21:05:51 55° ENE 21:05:51 55° ENE 21:09:11 10° ESE
Cosmos 1937 Rocket 3.8 21:00:47 10° N 21:06:00 65° ENE 21:10:24 15° SSE
Cosmos 1980 Rocket 2.4 21:08:20 51° WNW 21:08:32 51° WNW 21:13:58 10° N
SJ 16-02 2.8 21:06:21 10° NNW 21:08:33 27° NW 21:08:33 27° NW
IRIDIUM 114 4.4 21:11:14 41° SSE 21:13:05 77° E 21:18:18 10° N
STARLINK-1301 4.0 21:17:00 45° E 21:17:00 45° E 21:19:39 10° NE
STARLINK-80 3.6 21:16:40 62° ESE 21:16:40 62° ESE 21:20:11 10° NE
STARLINK-1307 4.1 21:17:49 42° E 21:17:49 42° E 21:20:34 10° NE
Cosmos 2219 3.8 21:12:44 10° NW 21:16:49 36° WNW 21:16:49 36° WNW
GPS 2-14 Rocket1 3.4 21:19:54 39° SE 21:19:54 39° SE 21:22:36 10° E
STARLINK-22 3.9 21:20:01 46° ENE 21:20:01 46° ENE 21:22:31 10° NE
STARLINK-1290 3.9 21:19:57 46° E 21:19:57 46° E 21:22:48 10° NE
Cosmos 1842 Rocket 4.3 21:16:38 10° N 21:20:59 53° E 21:24:36 14° SSE
STARLINK-58 4.5 21:21:39 30° ESE 21:21:39 30° ESE 21:24:11 10° ENE
STARLINK-1297 3.7 21:21:57 50° ESE 21:21:57 50° ESE 21:24:54 10° NE
IRIDIUM 103 4.2 21:20:23 41° S 21:22:14 84° W 21:27:28 10° N
BREEZE-M TANK 3.7 21:22:51 30° S 21:24:08 36° SE 21:27:06 10° ENE
STARLINK-26 3.8 21:24:53 45° NNW 21:24:53 45° NNW 21:27:44 10° NNE
USA 234 3.9 21:20:19 10° NNE 21:26:19 40° NW 21:29:03 28° W
Cosmos 858 Rocket 4.4 21:21:16 10° NNW 21:26:31 75° WSW 21:30:24 19° S
Shenzhou-11 Module 4.4 21:28:10 14° ESE 21:28:10 14° ESE 21:28:57 10° E
CZ-2C R/B 3.7 21:24:01 10° NNE 21:28:52 41° E 21:33:43 10° S
CZ-3A R/B 4.3 21:26:53 13° S 21:31:13 24° SE 21:44:29 10° E
STARLINK-1283 3.2 21:31:03 71° W 21:31:14 74° NW 21:34:54 10° NE
Cosmos 836 Rocket 4.5 21:29:06 32° S 21:31:36 82° ESE 21:36:53 10° NNE
STARLINK-1317 2.9 21:32:28 85° WNW 21:32:29 85° NW 21:35:53 10° NE
Iridium 2 3.7 21:29:02 10° N 21:32:38 58° W 21:32:38 58° W
Cosmos 2297 Rocket 2.6 21:28:43 10° NW 21:33:51 37° WSW 21:34:17 37° WSW
ERS-2 3.1 21:35:21 31° WNW 21:35:21 31° WNW 21:37:40 10° NNW
ARIANE 5 R/B 4.4 21:32:21 13° S 21:35:25 17° SSE 21:45:27 10° ESE
Cosmos 1825 4.3 21:32:50 10° SSE 21:35:57 25° E 21:39:04 10° NE
CZ-4B R/B 4.2 21:34:11 10° ESE 21:36:14 17° ENE 21:38:16 10° NNE
NOSS 2-1 (C) 3.0 21:36:28 54° SSW 21:37:13 83° ESE 21:40:38 10° NNE
Cosmos 2082 3.6 21:31:52 10° NNW 21:37:30 83° WSW 21:43:05 10° SSE
ATLAS CENTAUR R/B 3.8 21:33:10 10° NNW 21:38:29 81° ENE 21:53:38 10° SE
Cosmos 2322 Rocket 2.7 21:34:36 16° S 21:38:57 56° ESE 21:44:26 10° NNE
IRIDIUM 106 4.5 21:38:37 34° SW 21:40:32 52° W 21:45:36 10° NNW
Cosmos 1076 Rocket 3.4 21:39:26 34° SSW 21:41:14 75° W 21:45:34 10° N
NOSS 2-1 (D) 2.9 21:40:49 50° SW 21:41:41 83° WNW 21:45:04 10° NNE
STARLINK-42 3.8 21:41:47 36° NW 21:41:48 36° NW 21:44:47 10° NNE
Landsat 5 3.5 21:41:25 15° S 21:45:00 73° WSW 21:49:31 10° NNW
In-Cosmos 22 Rocket 4.2 21:42:43 24° SSW 21:46:19 66° W 21:51:59 10° N
STARLINK-48 3.9 21:46:40 30° S 21:48:18 56° SE 21:52:06 10° NE
ASTRO F (AKARI) 4.4 21:47:33 10° N 21:51:04 80° WNW 21:52:56 27° SSW
Cosmos 2218 Rocket 4.4 21:47:49 10° S 21:53:59 64° E 22:00:14 10° NNE
STARLINK-1316 3.5 21:55:24 35° W 21:56:03 40° NW 21:59:00 10° NNE
STARLINK-1257 3.6 21:56:16 33° W 21:56:56 39° NW 21:59:52 10° NNE
Cosmos 372 Rocket 4.0 21:51:48 10° NNW 21:56:56 86° ENE 22:02:06 10° SSE
STARLINK-1256 3.6 21:57:10 32° W 21:57:54 37° NW 22:00:49 10° NNE
STARLINK-62 2.9 21:57:01 39° WSW 21:58:00 68° NW 22:01:09 10° NNE
Palapa 6 Rocket 4.5 21:52:58 23° WSW 21:58:17 65° SSE 22:05:26 10° E
STARLINK-1213 3.7 21:58:00 31° W 21:58:45 36° NW 22:01:39 10° NNE
STARLINK-1263 3.7 21:58:52 30° W 21:59:39 35° NW 22:02:32 10° NNE
STARLINK-34 3.0 21:58:44 36° WSW 21:59:48 63° NW 22:02:55 10° NNE
STARLINK-1259 3.8 21:59:43 29° W 22:00:32 34° NW 22:03:24 10° NNE
STARLINK-1265 3.8 22:00:24 28° W 22:01:14 34° NW 22:04:06 10° NNE
STARLINK-1285 3.8 22:00:35 28° W 22:01:25 33° NW 22:04:17 10° NNE
Cosmos 1892 3.4 22:01:36 26° WSW 22:02:53 34° W 22:06:24 10° NNW
STARLINK-1296 3.9 22:02:19 26° W 22:03:14 32° NW 22:06:04 10° NNE
STARLINK-1260 4.0 22:03:10 25° W 22:04:08 31° NW 22:06:56 10° NNE
SWIFT 3.0 22:02:59 25° SW 22:04:37 34° SSW 22:08:25 10° SE
STARLINK-1318 4.0 22:04:01 24° W 22:05:01 30° NW 22:07:48 10° NNE
STARLINK-1268 4.0 22:04:07 24° W 22:05:06 30° NW 22:07:52 10° NNE
STARLINK-1291 4.0 22:03:59 24° W 22:05:07 31° NW 22:08:02 10° NNE
STARLINK-1029 2.8 22:03:54 28° SW 22:05:22 88° NW 22:08:32 10° NE
SL-16 R/B 2.3 22:01:20 18° SSW 22:05:35 62° WNW 22:11:11 10° N
STARLINK-1275 4.1 22:04:54 23° W 22:05:56 29° NW 22:08:42 10° NNE
STARLINK-1264 4.1 22:05:20 23° W 22:06:31 30° NW 22:09:24 10° NNE
STARLINK-1299 4.3 22:03:23 16° SSW 22:06:32 50° SE 22:10:35 10° NE
STARLINK-1309 4.1 22:05:47 23° W 22:06:51 28° NW 22:09:36 10° NNE
PAYLOAD A 3.9 22:02:47 10° N 22:07:22 57° WNW 22:11:34 13° SSW
STARLINK-1282 4.1 22:06:40 22° W 22:07:47 28° NW 22:10:30 10° NNE
STARLINK-1267 4.2 22:06:40 22° W 22:07:54 29° NW 22:10:46 10° NNE
STARLINK-1313 4.5 22:07:50 19° WNW 22:08:56 23° NW 22:11:28 10° N
Cosmos 2227 Rocket 3.4 22:05:18 10° WNW 22:09:12 19° W 22:10:44 17° WSW
STARLINK-1272 4.2 22:07:57 21° W 22:09:14 28° NW 22:12:05 10° NNE
STARLINK-1279 4.5 22:08:41 18° WNW 22:09:48 22° NW 22:12:20 10° N
STARLINK-1298 4.3 22:09:16 20° W 22:10:29 26° NW 22:13:09 10° NNE
STARLINK-1207 4.3 22:09:15 20° W 22:10:36 27° NW 22:13:25 10° NNE
PSLV R/B 4.1 22:07:01 10° N 22:10:53 36° WNW 22:13:35 17° SW
STARLINK-1293 4.3 22:10:07 19° W 22:11:22 25° NW 22:14:00 10° N
Cosmos 2221 3.0 22:07:38 10° NNW 22:11:41 39° W 22:15:44 10° SSW
STARLINK-1266 4.4 22:10:38 19° W 22:12:02 26° NW 22:14:49 10° NNE
CZ-4C R/B 4.4 22:12:36 19° WSW 22:12:52 19° W 22:15:28 10° NW
STARLINK-1255 4.4 22:11:51 18° W 22:13:10 24° NW 22:15:47 10° N
STARLINK-1284 4.4 22:11:57 18° W 22:13:26 25° NW 22:16:10 10° N
Cosmos 1869 3.7 22:10:31 10° NNW 22:14:07 39° W 22:17:42 10° SSW
Skynet4D Del rocket 3.8 22:09:17 13° W 22:14:17 65° N 22:19:35 10° ENE
Cosmos 1766 Rocket 4.0 22:10:27 10° S 22:14:47 63° E 22:19:06 10° NNE
STARLINK-1258 4.5 22:13:19 17° W 22:14:50 24° NW 22:17:33 10° N
SL-8 Rocket 4.0 22:08:52 10° SSW 22:15:07 66° W 22:21:23 10° N
STARLINK-1306 4.3 22:11:35 13° SSW 22:15:14 52° SE 22:19:18 10° NE
SJ-6F 4.3 22:12:58 10° N 22:17:05 79° WNW 22:21:09 10° SSW
Cosmos 2150 Rocket 3.9 22:12:12 10° NNW 22:17:20 81° WSW 22:22:28 10° S
Cosmos 2151 2.9 22:16:11 10° SSW 22:20:21 65° W 22:24:34 10° N
H-2A R/B 3.6 22:21:52 14° WSW 22:22:58 16° W 22:25:33 10° WNW
Meteor 1-31 Rocket 2.9 22:23:24 10° NNE 22:27:11 76° E 22:30:59 10° S
STARLINK-1254 4.4 22:23:43 10° NNW 22:27:47 57° NE 22:31:51 10° SE
H-2A R/B 4.1 22:24:41 10° NNE 22:28:38 36° E 22:32:42 10° SSE
STARLINK-1281 3.9 22:24:54 10° SSW 22:29:00 68° SE 22:33:06 10° NE
SAR-Lupe-4 4.4 22:27:51 10° SSW 22:31:00 29° W 22:34:09 10° NW
Fermi 3.7 22:27:37 12° WSW 22:31:17 74° SSE 22:35:20 10° E
GPS 2-04 Rocket1 4.0 22:28:23 10° W 22:31:45 24° SW 22:35:07 10° SSE
STARLINK-1231 4.1 22:28:41 10° NNW 22:32:47 65° NE 22:36:53 10° SE
ALOS 3.0 22:28:17 10° NNE 22:32:53 57° E 22:37:26 10° S
STARLINK-1310 3.7 22:29:51 10° SW 22:33:59 79° SE 22:38:06 10° NE
Cosmos 1315 Rocket 3.8 22:31:03 10° NW 22:34:19 26° W 22:37:35 10° SSW
STARLINK-1232 3.9 22:33:38 10° NW 22:37:46 75° NE 22:41:53 10° SE
STARLINK-1278 3.7 22:34:37 10° SW 22:38:47 69° NW 22:42:57 10° NNE
Cosmos 2298 Rocket 4.4 22:33:54 10° NNW 22:38:51 41° W 22:43:47 10° S
STARLINK-1319 3.6 22:34:47 10° SW 22:38:55 90° SSW 22:43:03 10° NE
CZ-4B R/B 2.9 22:36:14 10° NNE 22:39:58 74° ESE 22:43:33 10° S
Uosat 12 SS-18 rocket 4.2 22:35:48 10° NNW 22:40:16 75° WSW 22:45:29 10° SSE
STARLINK-1280 3.7 22:36:28 10° SW 22:40:37 66° NW 22:44:46 10° NNE
STARLINK-1208 3.7 22:38:34 10° NW 22:42:43 86° NE 22:46:51 10° SE
STARLINK-1212 4.2 22:41:27 10° WNW 22:43:48 20° SW 22:46:09 10° S
STARLINK-1277 3.6 22:39:47 10° SW 22:43:54 79° NW 22:48:03 10° NE
STARLINK-1105 4.2 22:41:56 10° WNW 22:44:15 20° SW 22:46:34 10° S
Cosmos 2360 Rocket 2.2 22:39:21 10° SSW 22:44:56 70° WNW 22:50:32 10° NNE
ASTRO E2 3.7 22:42:06 10° W 22:45:31 27° SSW 22:48:55 10° SSE
Cosmos 2344 4.5 22:39:15 10° S 22:47:11 50° ESE 22:54:18 10° NE
